Hamilton, OH

5:33 AM EDT on July 28, 2017 (GMT -0400)
Butler County Regional

Weather History for KHAO - March, 2014

Change the Weather History Date:

Tuesday, March 25, 2014

  Actual Average (KLUK) Record (KLUK)
Temperature  
Mean Temperature 33 °F -  
Max Temperature 41 °F 54 °F 82 °F (2007)
Min Temperature 27 °F 34 °F 12 °F (1974)
Degree Days  
Heating Degree Days 32    
Moisture  
Dew Point 21 °F    
Average Humidity 65    
Maximum Humidity 89    
Minimum Humidity 40    
Precipitation  
Precipitation 0.01 in - - ()
Sea Level Pressure  
Sea Level Pressure 30.07 in    
Wind  
Wind Speed 8 mph (WNW)    
Max Wind Speed 25 mph    
Max Gust Speed 34 mph    
Visibility 8 miles    
Events Fog , Snow    
Averages and records for this station are not official NWS values.
T = Trace of Precipitation, MM = Missing Value Source: NWS Daily Summary

Daily Weather History Graph

Daily Weather History Graph

Search for Another Location

Airport or City:

Trip Planner

Search our weather history database for the weather conditions in past years. The results will help you decide how hot, cold, wet, or windy it might be!

Date:

Astronomy

Mar. 25, 2014 Rise Set
Actual Time 7:33 AM EDT 7:55 PM EDT
Civil Twilight 7:06 AM EDT 8:21 PM EDT
Nautical Twilight 6:35 AM EDT 8:53 PM EDT
Astronomical Twilight 6:03 AM EDT 9:25 PM EDT
Moon 3:52 AM EDT (3/25) 2:26 PM EDT (3/25)
Length of Visible Light 13h 15m
Length of Day
12h 21m
Waning Crescent, 32% of the Moon is Illuminated
Mar 25
Waning Crescent
Mar 30
New
Apr 7
First Quarter
Apr 15
Full
Apr 22
Last Quarter

Hourly Weather History & Observations

Time (EDT) Temp. Windchill Dew Point Humidity Pressure Visibility Wind Dir Wind Speed Gust Speed Precip Events Conditions
12:53 AM 30.9 °F 27.5 °F 17.1 °F 57% 30.13 in 10.0 mi North 3.5 mph - N/A   Clear
1:53 AM 30.0 °F - 17.1 °F 59% 30.12 in 10.0 mi Calm Calm - N/A   Clear
2:53 AM 28.9 °F - 19.0 °F 67% 30.12 in 10.0 mi Calm Calm - N/A   Mostly Cloudy
3:53 AM 30.0 °F - 17.1 °F 59% 30.09 in 10.0 mi Calm Calm - N/A   Overcast
4:53 AM 30.0 °F - 19.9 °F 66% 30.06 in 10.0 mi Calm Calm - N/A   Overcast
5:53 AM 30.0 °F 25.2 °F 21.0 °F 69% 30.04 in 10.0 mi NNW 4.6 mph - N/A   Overcast
6:53 AM 27.0 °F - 19.0 °F 72% 30.04 in 10.0 mi Calm Calm - N/A   Mostly Cloudy
7:53 AM 27.0 °F - 19.0 °F 72% 30.03 in 10.0 mi Calm Calm - N/A   Overcast
8:53 AM 30.9 °F - 21.0 °F 67% 30.03 in 10.0 mi Calm Calm - N/A   Overcast
9:53 AM 34.0 °F 29.8 °F 19.9 °F 56% 30.04 in 10.0 mi West 4.6 mph - N/A   Overcast
10:53 AM 37.0 °F 31.0 °F 17.1 °F 44% 30.04 in 10.0 mi WSW 8.1 mph - N/A   Overcast
11:53 AM 39.9 °F 35.1 °F 19.0 °F 43% 30.04 in 10.0 mi NW 6.9 mph 18.4 mph N/A   Overcast
12:53 PM 37.9 °F 30.0 °F 19.9 °F 48% 30.03 in 10.0 mi WNW 12.7 mph - N/A   Overcast
1:47 PM 35.6 °F 26.2 °F 24.8 °F 65% 30.02 in 1.8 mi West 15.0 mph 23.0 mph 0.00 in Snow Light Snow
1:53 PM 33.1 °F 23.4 °F 28.0 °F 82% 30.04 in 0.8 mi WNW 13.8 mph 23.0 mph 0.00 in Snow Light Snow
2:05 PM 36.0 °F 27.5 °F 30.9 °F 82% 30.02 in 2.0 mi NW 12.7 mph 18.4 mph 0.00 in Snow Light Snow
2:08 PM 35.1 °F 22.7 °F 28.9 °F 78% 30.02 in 1.0 mi WNW 25.3 mph 33.4 mph 0.00 in Snow Light Snow
2:12 PM 30.9 °F 18.7 °F 28.0 °F 89% 30.03 in 0.2 mi WNW 19.6 mph 33.4 mph 0.00 in Fog , Snow Heavy Snow
2:28 PM 32.0 °F 21.2 °F 28.0 °F 85% 30.02 in 1.2 mi NW 16.1 mph 21.9 mph 0.01 in Snow Light Snow
2:30 PM 32.0 °F 22.5 °F 28.0 °F 85% 30.02 in 2.5 mi WNW 12.7 mph 21.9 mph 0.01 in Snow Light Snow
2:37 PM 33.1 °F 22.2 °F 27.0 °F 78% 30.02 in 6.0 mi WNW 17.3 mph 23.0 mph 0.01 in Snow Light Snow
2:45 PM 34.0 °F 22.4 °F 25.0 °F 70% 30.02 in 9.0 mi WNW 20.7 mph - 0.01 in   Mostly Cloudy
2:53 PM 35.1 °F 24.1 °F 25.0 °F 67% 30.05 in 10.0 mi WNW 19.6 mph 34.5 mph 0.01 in   Mostly Cloudy
3:53 PM 34.0 °F 21.8 °F 23.0 °F 64% 30.06 in 10.0 mi WNW 23.0 mph 32.2 mph 0.00 in Snow Light Snow
4:01 PM 32.0 °F 20.5 °F 25.0 °F 75% 30.05 in 1.8 mi WNW 18.4 mph 34.5 mph 0.00 in Snow Light Snow
4:09 PM 33.1 °F 23.0 °F 23.0 °F 66% 30.04 in 3.0 mi NW 15.0 mph - 0.00 in Snow Light Snow
4:53 PM 36.0 °F 25.3 °F 21.9 °F 57% 30.07 in 10.0 mi NW 19.6 mph 33.4 mph 0.00 in   Scattered Clouds
5:53 PM 34.0 °F 23.0 °F 12.0 °F 40% 30.10 in 10.0 mi WNW 18.4 mph 29.9 mph 0.00 in   Mostly Cloudy
6:53 PM 33.1 °F 22.6 °F 15.1 °F 48% 30.12 in 10.0 mi WNW 16.1 mph 20.7 mph N/A   Overcast
7:53 PM 30.0 °F 17.9 °F 19.9 °F 66% 30.15 in 9.0 mi NNW 18.4 mph 25.3 mph 0.00 in Snow Light Snow
8:53 PM 28.9 °F 17.7 °F 16.0 °F 58% 30.17 in 9.0 mi WNW 15.0 mph 21.9 mph 0.00 in Snow Light Snow
9:53 PM 28.9 °F 19.8 °F 15.1 °F 56% 30.19 in 9.0 mi WNW 10.4 mph - 0.00 in Snow Light Snow
10:53 PM 28.0 °F 17.5 °F 14.0 °F 56% 30.22 in 9.0 mi WNW 12.7 mph - 0.00 in Snow Light Snow
11:53 PM 27.0 °F 18.0 °F 16.0 °F 63% 30.23 in 9.0 mi NW 9.2 mph - 0.00 in Snow Light Snow